This is the latest recevied weather packets stored in our database for station/object TA2LKM-11. If no packets are shown the sender has not sent any weather packets the latest 10 day(s).
| Time | Temp. | Humidity | Pressure | Rain* | Wind** | Luminosity | Snow |
|---|---|---|---|---|---|---|---|
| 1788406259 | 18.89° C | 56% | 1013.1 hPa | - | - | - | - |
| 1788405358 | 18.89° C | 54% | 1013.2 hPa | - | - | - | - |
| 1788404457 | 19.44° C | 52% | 1013.2 hPa | - | - | - | - |
| 1788404361 | 19.44° C | 53% | 1013.2 hPa | - | - | - | - |
| 1788404266 | 19.44° C | 53% | 1013.1 hPa | - | - | - | - |
| 1788404178 | 18.89° C | 52% | 1013 hPa | - | - | - | - |
| 1788403277 | 18.33° C | 55% | 1013 hPa | - | - | - | - |
| 1788402377 | 20° C | 53% | 1013 hPa | - | - | - | - |
| 1788402288 | 20° C | 53% | 1013 hPa | - | - | - | - |
| 1788401387 | 18.89° C | 57% | 1013.1 hPa | - | - | - | - |
| 1788400486 | 18.89° C | 58% | 1013.1 hPa | - | - | - | - |
| 1788399586 | 20.56° C | 54% | 1013 hPa | - | - | - | - |
| 1788398685 | 20.56° C | 52% | 1013 hPa | - | - | - | - |
| 1788397784 | 21.11° C | 53% | 1013.2 hPa | - | - | - | - |
| 1788396883 | 20.56° C | 54% | 1013.2 hPa | - | - | - | - |
| 1788396795 | 20.56° C | 54% | 1013.2 hPa | - | - | - | - |
| 1788395894 | 20° C | 53% | 1013.2 hPa | - | - | - | - |
| 1788395853 | 20° C | 53% | 1013.3 hPa | - | - | - | - |
| 1788395764 | 20° C | 53% | 1013.3 hPa | - | - | - | - |
| 1788394863 | 20° C | 55% | 1013.5 hPa | - | - | - | - |
| 1788393963 | 21.11° C | 54% | 1013.4 hPa | - | - | - | - |
| 1788393062 | 19.44° C | 57% | 1013.4 hPa | - | - | - | - |
| 1788392161 | 20° C | 55% | 1013.3 hPa | - | - | - | - |
| 1788392072 | 20.56° C | 54% | 1013.3 hPa | - | - | - | - |
| 1788391182 | 20° C | 54% | 1013.3 hPa | - | - | - | - |
* Rain since midnight (hover to see other rain measurements)
** Current wind speed in m/s (hover to see current wind gust speed)